Weather History for Rutland, VT

Change the Weather History Date:

Tuesday, May 31, 2011

  Actual Average Record
Temperature  
Mean Temperature 71 °F -  
Max Temperature 84 °F - 90 °F (1978)
Min Temperature 57 °F - 28 °F (1961)
Degree Days  
Heating Degree Days 0    
Month to date heating degree days 234  
Since 1 July heating degree days 7419  
Cooling Degree Days 6    
Month to date cooling degree days 36  
Year to date cooling degree days 39  
Growing Degree Days 20 (Base 50)    
Moisture  
Dew Point 55 °F    
Average Humidity 63    
Maximum Humidity 86    
Minimum Humidity 39    
Precipitation  
Precipitation 0.00 in - 1.59 in (1992)
Month to date precipitation 3.20  
Year to date precipitation 10.34  
Sea Level Pressure  
Sea Level Pressure 30.20 in    
Wind  
Wind Speed 6 mph (ESE)    
Max Wind Speed 10 mph    
Max Gust Speed -    
Visibility 10 miles    
Events      
T = Trace of Precipitation, MM = Missing Value Source: NWS Daily Summary

Daily Weather History Graph

Daily Weather History Graph

Search for Another Location

Airport:

Trip Planner

Search our weather history database for the weather conditions in past years. The results will help you decide how hot, cold, wet, or windy it might be!

Date:

Astronomy

May. 31, 2011 Rise Set
Actual Time 5:14 AM EDT 8:25 PM EDT
Civil Twilight 4:39 AM EDT 8:59 PM EDT
Nautical Twilight 3:54 AM EDT 9:44 PM EDT
Astronomical Twilight 3:00 AM EDT 10:39 PM EDT
Moon 4:07 AM EDT (5/31) 7:34 PM EDT (5/31)
Length of Visible Light 16h 20m
Length of Day
15h 10m
Waning Crescent, 2% of the Moon is Illuminated
May 31
Waning Crescent
Jun 1
New
Jun 8
First Quarter
Jun 15
Full
Jun 23
Last Quarter

Hourly Weather History & Observations

Time (EDT) Temp. Heat Index Dew Point Humidity Pressure Visibility Wind Dir Wind Speed Gust Speed Precip Events Conditions
12:15 AM 62.6 °F - 57.2 °F 82% 30.20 in 10.0 mi SE 9.2 mph - N/A   Clear
12:35 AM 62.6 °F - 57.2 °F 82% 30.20 in 10.0 mi SSE 6.9 mph - N/A   Clear
12:55 AM 62.6 °F - 57.2 °F 82% 30.20 in 10.0 mi SSE 3.5 mph - N/A   Clear
1:15 AM 62.6 °F - 57.2 °F 82% 30.21 in 10.0 mi SSE 6.9 mph - N/A   Clear
1:35 AM 60.8 °F - 57.2 °F 88% 30.20 in 10.0 mi SE 6.9 mph - N/A   Clear
1:55 AM 60.8 °F - 55.4 °F 82% 30.20 in 10.0 mi SE 10.4 mph - N/A   Clear
2:15 AM 60.8 °F - 55.4 °F 82% 30.19 in 10.0 mi SSE 5.8 mph - N/A   Clear
2:35 AM 60.8 °F - 55.4 °F 82% 30.19 in 10.0 mi ESE 10.4 mph - N/A   Clear
2:55 AM 60.8 °F - 55.4 °F 82% 30.19 in 10.0 mi SSE 6.9 mph - N/A   Clear
3:15 AM 60.8 °F - 53.6 °F 77% 30.19 in 10.0 mi SE 9.2 mph - N/A   Clear
3:35 AM 60.8 °F - 53.6 °F 77% 30.20 in 10.0 mi SE 5.8 mph - N/A   Clear
3:55 AM 59.0 °F - 53.6 °F 82% 30.21 in 10.0 mi ESE 6.9 mph - N/A   Clear
4:15 AM 59.0 °F - 53.6 °F 82% 30.21 in 10.0 mi SE 9.2 mph - N/A   Clear
4:35 AM 57.2 °F - 53.6 °F 88% 30.21 in 10.0 mi SE 9.2 mph - N/A   Clear
4:55 AM 57.2 °F - 53.6 °F 88% 30.21 in 10.0 mi SE 10.4 mph - N/A   Clear
5:15 AM 57.2 °F - 51.8 °F 82% 30.21 in 10.0 mi SSE 9.2 mph - N/A   Partly Cloudy
5:35 AM 57.2 °F - 51.8 °F 82% 30.22 in 10.0 mi SE 6.9 mph - N/A   Clear
5:55 AM 57.2 °F - 51.8 °F 82% 30.23 in 10.0 mi SE 8.1 mph - N/A   Clear
6:15 AM 57.2 °F - 51.8 °F 82% 30.24 in 10.0 mi SE 9.2 mph - N/A   Clear
6:35 AM 57.2 °F - 51.8 °F 82% 30.24 in 10.0 mi SE 10.4 mph - N/A   Scattered Clouds
6:55 AM 57.2 °F - 51.8 °F 82% 30.24 in 10.0 mi SE 5.8 mph - N/A   Overcast
7:15 AM 59.0 °F - 51.8 °F 77% 30.24 in 10.0 mi SE 4.6 mph - N/A   Mostly Cloudy
7:35 AM 60.8 °F - 53.6 °F 77% 30.24 in 10.0 mi ESE 10.4 mph - N/A   Scattered Clouds
7:55 AM 62.6 °F - 53.6 °F 72% 30.25 in 10.0 mi ESE 4.6 mph - N/A   Partly Cloudy
8:15 AM 62.6 °F - 53.6 °F 72% 30.25 in 10.0 mi SE 6.9 mph - N/A   Mostly Cloudy
8:35 AM 64.4 °F - 55.4 °F 73% 30.24 in 10.0 mi Calm Calm - N/A   Mostly Cloudy
8:55 AM 66.2 °F - 55.4 °F 68% 30.24 in 10.0 mi East 4.6 mph - N/A   Mostly Cloudy
9:15 AM 68.0 °F - 55.4 °F 64% 30.24 in 10.0 mi Calm Calm - N/A   Overcast
9:35 AM 69.8 °F - 57.2 °F 64% 30.24 in 10.0 mi Calm Calm - N/A   Mostly Cloudy
9:55 AM 69.8 °F - 57.2 °F 64% 30.23 in 10.0 mi Calm Calm - N/A   Partly Cloudy
10:15 AM 73.4 °F - 57.2 °F 57% 30.23 in 10.0 mi Calm Calm - N/A   Clear
10:35 AM 73.4 °F - 57.2 °F 57% 30.23 in 10.0 mi Calm Calm - N/A   Clear
10:55 AM 75.2 °F - 53.6 °F 47% 30.23 in 10.0 mi WNW 3.5 mph - N/A   Clear
11:15 AM 75.2 °F - 53.6 °F 47% 30.23 in 10.0 mi Calm Calm - N/A   Clear
11:35 AM 77.0 °F - 50.0 °F 39% 30.23 in 10.0 mi Calm Calm - N/A   Clear
11:55 AM 78.8 °F - 51.8 °F 39% 30.22 in 10.0 mi NNE 4.6 mph - N/A   Clear
12:15 PM 78.8 °F - 53.6 °F 42% 30.21 in 10.0 mi NE 3.5 mph - N/A   Clear
12:35 PM 78.8 °F - 53.6 °F 42% 30.20 in 10.0 mi Calm Calm - N/A   Clear
12:55 PM 78.8 °F - 55.4 °F 44% 30.20 in 10.0 mi Calm Calm - N/A   Clear
1:15 PM 80.6 °F 80.5 °F 55.4 °F 42% 30.19 in 10.0 mi ENE 4.6 mph - N/A   Clear
1:35 PM 80.6 °F 80.5 °F 55.4 °F 42% 30.18 in 10.0 mi East 4.6 mph - N/A   Clear
1:55 PM 80.6 °F 80.5 °F 55.4 °F 42% 30.17 in 10.0 mi SW 3.5 mph - N/A   Clear
2:15 PM 80.6 °F 80.8 °F 57.2 °F 45% 30.17 in 10.0 mi Calm Calm - N/A   Clear
2:35 PM 82.4 °F 82.0 °F 57.2 °F 42% 30.16 in 10.0 mi NNE 5.8 mph - N/A   Clear
2:55 PM 82.4 °F 82.9 °F 60.8 °F 48% 30.16 in 10.0 mi NE 5.8 mph - N/A   Clear
3:15 PM 82.4 °F 82.5 °F 59.0 °F 45% 30.16 in 10.0 mi NNE 3.5 mph - N/A   Clear
3:35 PM 82.4 °F 82.9 °F 60.8 °F 48% 30.15 in 10.0 mi ENE 3.5 mph - N/A   Clear
3:55 PM 82.4 °F 82.5 °F 59.0 °F 45% 30.15 in 10.0 mi NW 5.8 mph - N/A   Clear
4:15 PM 82.4 °F 82.5 °F 59.0 °F 45% 30.15 in 10.0 mi Calm Calm - N/A   Clear
4:35 PM 82.4 °F 82.5 °F 59.0 °F 45% 30.14 in 10.0 mi Calm Calm - N/A   Clear
4:55 PM 84.2 °F 83.8 °F 59.0 °F 42% 30.14 in 10.0 mi NNE 4.6 mph - N/A   Clear
5:15 PM 84.2 °F 83.8 °F 59.0 °F 42% 30.14 in 10.0 mi NNW 3.5 mph - N/A   Clear
5:35 PM 84.2 °F 83.5 °F 57.2 °F 40% 30.14 in 10.0 mi WSW 4.6 mph - N/A   Clear
5:55 PM 82.4 °F 82.9 °F 60.8 °F 48% 30.13 in 10.0 mi West 3.5 mph - N/A   Clear
6:15 PM 82.4 °F 82.9 °F 60.8 °F 48% 30.13 in 10.0 mi WSW 6.9 mph - N/A   Clear
6:35 PM 82.4 °F 82.9 °F 60.8 °F 48% 30.13 in 10.0 mi SW 4.6 mph - N/A   Clear
6:55 PM 82.4 °F 82.9 °F 60.8 °F 48% 30.13 in 10.0 mi SSW 4.6 mph - N/A   Clear
7:15 PM 80.6 °F 81.5 °F 60.8 °F 51% 30.13 in 10.0 mi South 4.6 mph - N/A   Clear
7:35 PM 80.6 °F 81.1 °F 59.0 °F 48% 30.13 in 10.0 mi South 5.8 mph - N/A   Clear
7:55 PM 78.8 °F - 62.6 °F 57% 30.12 in 10.0 mi SSE 3.5 mph - N/A   Clear
8:15 PM 75.2 °F - 62.6 °F 65% 30.12 in 10.0 mi SE 6.9 mph - N/A   Clear
8:35 PM 75.2 °F - 62.6 °F 65% 30.11 in 10.0 mi SE 6.9 mph - N/A   Clear
8:55 PM 73.4 °F - 62.6 °F 69% 30.11 in 10.0 mi SE 9.2 mph - N/A   Clear
9:15 PM 73.4 °F - 60.8 °F 65% 30.12 in 10.0 mi SE 6.9 mph - N/A   Clear
9:35 PM 71.6 °F - 62.6 °F 73% 30.12 in 10.0 mi ESE 9.2 mph - N/A   Clear
9:55 PM 71.6 °F - 60.8 °F 69% 30.12 in 10.0 mi ESE 8.1 mph - N/A   Clear
10:15 PM 71.6 °F - 60.8 °F 69% 30.11 in 10.0 mi ESE 8.1 mph - N/A   Clear
10:35 PM 69.8 °F - 60.8 °F 73% 30.11 in 10.0 mi ESE 8.1 mph - N/A   Clear
10:55 PM 71.6 °F - 60.8 °F 69% 30.10 in 10.0 mi ESE 8.1 mph - N/A   Clear
11:15 PM 69.8 °F - 60.8 °F 73% 30.10 in 10.0 mi SE 6.9 mph - N/A   Clear
11:35 PM 69.8 °F - 60.8 °F 73% 30.09 in 10.0 mi ESE 8.1 mph - N/A   Clear
11:55 PM 68.0 °F - 60.8 °F 78% 30.08 in 10.0 mi ESE 10.4 mph - N/A   Clear